Regional Weather Roundup
Issued by NWS

Home | Current Version | Previous Version | Text Only | Print | Product List | Glossary Off
Versions: 1 2 3 4 5 6 7 8 9 10 11 12 13 14 15 16 17 18 19 20 21 22 23 24 25 26 27 28 29 30 31 32 33 34 35 36 37 38 39 40 41 42 43 44 45 46 47 48 49 50

000
ASUS43 KMKX 020121
RWRWI

WISCONSIN REGIONAL WEATHER ROUNDUP
NATIONAL WEATHER SERVICE MILWAUKEE/SULLIVAN WI
800 PM CDT SAT AUG 01 2015

NOTE: "FAIR" INDICATES FEW OR NO CLOUDS BELOW 12,000 FEET WITH NO
SIGNIFICANT WEATHER AND/OR OBSTRUCTIONS TO VISIBILITY.

WIZ001-002-006>008-014>016-023>028-020200-
NORTHWEST WISCONSIN

CITY           SKY/WX    TMP DP  RH WIND       PRES   REMARKS
SUPERIOR ARPT  PTCLDY    74  59  58 SW7       29.75F
ASHLAND        CLEAR     73  56  54 SW7       29.77F
HAYWARD        PTCLDY    74  60  61 S7        29.81F
SIREN          CLEAR     77  60  55 CALM      29.80F
CUMBERLAND     CLEAR     72  61  68 CALM      29.82F
RICE LAKE      CLEAR     74  60  61 S3        29.83F
CHETEK         CLEAR     76  62  60 CALM      29.82F
LADYSMITH      CLEAR     74  57  55 CALM      29.85F
EAU CLAIRE     CLEAR     77  61  57 SW5       29.81F
MENOMONIE      CLEAR     77  63  61 S3        29.81F
NEW RICHMOND   CLEAR     78  62  58 S7        29.80F HX  80
OSCEOLA        CLEAR     77  64  63 CALM      29.82S
$$

WIZ003>005-009-010-017-018-020200-
NORTH CENTRAL WISCONSIN

CITY           SKY/WX    TMP DP  RH WIND       PRES   REMARKS
MANITOWISH WTR PTCLDY    71  55  58 SW5       29.82F
ARBOR VITAE    CLEAR     72  56  56 SW3       29.83F
WOODRUFF       CLEAR     72  56  56 SW3       29.83F
RHINELANDER    CLEAR     70  54  56 W5        29.85F
EAGLE RIVER    CLEAR     69  51  53 SW5       29.83F
LAND O LAKES   CLEAR     72  52  48 SW6       29.84S
PHILLIPS       PTCLDY    73  56  56 SW6       29.83F
TOMAHAWK       MOCLDY    71  55  55 CALM      29.85S
MEDFORD        CLEAR     71  58  64 CALM      29.86S
MERRILL        NOT AVBL
$$

WIZ029-030-035-036-043>047-020200-
CENTRAL WISCONSIN

CITY           SKY/WX    TMP DP  RH WIND       PRES   REMARKS
WAUSAU         CLEAR     75  54  47 W6        29.83F
MOSINEE        CLEAR     73  54  49 SW3       29.86F
MARSHFIELD     CLEAR     74  58  57 SW5       29.85F
STEVENS POINT  CLEAR     75  54  47 CALM      29.86S
WAUPACA        CLEAR     79  51  37 W3        29.84F
WAUTOMA        CLEAR     80  57  45 CALM      29.86S HX  80
WISC RAPIDS    CLEAR     78  54  43 CALM      29.86F
CAMP DOUGLAS   CLEAR     76  64  66 SW6       29.85F
$$

WIZ011>013-019>022-031-037>040-048>050-020200-
NORTHEAST WISCONSIN

CITY           SKY/WX    TMP DP  RH WIND       PRES   REMARKS
ANTIGO         PTCLDY    68  55  63 W5        29.86S
SHAWANO        CLEAR     77  53  43 W3        29.84S
OCONTO         CLEAR     75  55  49 SW3       29.81S
STURGEON BAY   CLEAR     73  52  46 SW5       29.84F
GREEN BAY      CLEAR     74  57  55 CALM      29.83F
MANITOWOC      CLEAR     75  54  47 MISG      29.84F
APPLETON       PTCLDY    75  54  46 W6        29.85F
CLINTONVILLE   CLEAR     77  48  36 W3        29.84S
OSHKOSH        CLEAR     77  54  44 CALM      29.84F
$$

WIZ032>034-041-042-053>061-020200-
SOUTHWEST WISCONSIN

CITY           SKY/WX    TMP DP  RH WIND       PRES   REMARKS
LA CROSSE      CLEAR     82  65  56 S5        29.83F HX  84
SPARTA         CLEAR     79  59  50 SW3       29.86F HX  80
VIROQUA        CLEAR     76  67  72 SW3       29.89S
BOSCOBEL       CLEAR     82  66  58 W5        29.87S HX  84
PRAIRIE DU CHI CLEAR     81  64  56 CALM      29.86S HX  83
PLATTEVILLE    MOCLDY    78  69  73 SW5       29.90S HX  81
$$

WIZ056-057-062-063-064-067-068-020200-
SOUTH CENTRAL WISCONSIN

CITY           SKY/WX    TMP DP  RH WIND       PRES   REMARKS
REEDSBURG      CLEAR     79  63  57 SW5       29.87S HX  80
BARABOO/DELLS  CLEAR     78  59  51 W6        29.87S
LONE ROCK      CLEAR     81  62  52 CALM      29.87F HX  82
MINERAL POINT  CLEAR     79  61  53 SW5       29.90S HX  80
MADISON        PTCLDY    79  62  56 CALM      29.87S HX  80
MIDDLETON      CLEAR     78  60  54 CALM      29.88S
WATERTOWN      CLEAR     77  64  64 SW3       29.86S
MONROE         PTCLDY    79  63  57 W8        29.90S HX  80
JANESVILLE     CLEAR     81  63  54 W5        29.88S HX  82
$$

WIZ051-052-058>065-066-070>072-020200-
SOUTHEAST WISCONSIN

CITY           SKY/WX    TMP DP  RH WIND       PRES   REMARKS
MILWAUKEE      PTCLDY    75  59  57 SE10      29.87S
WAUKESHA       CLEAR     77  57  50 SW6       29.89S
MILWAUKEE/TIMM CLEAR     79  55  44 NW6       29.87F
RACINE         CLEAR     75  60  59 S8        29.89S
BURLINGTON     CLEAR     76  60  57 CALM      29.88S
KENOSHA        CLEAR     73  62  68 E5        29.88S
FOND DU LAC    CLEAR     76  60  57 W3        29.85F
SHEBOYGAN      CLEAR     73  61  65 CALM      29.85S
WEST BEND      CLEAR     75  55  50 CALM      29.86S
JUNEAU         CLEAR     74  65  74 SW5       29.88S
$$

LSZ147-162-020200-
LAKE SUPERIOR

STATION/POSITION TIME  TEMP    WIND        PRES    WAVE
                       AIR SEA DIR/SP/G            HT/PER
                 (UTC) (F)     (DEG/KT/KT) (MB)    (FT/S)
W MID LAKE BUOY  0050   62 55  200/ 12/ 14 1006.3F   1
DEVILS ISLAND    0100   70     230/ 12/ 14 1006.6F
PORT WING        0000   80     220/  9/ 16 1007.8F
SAXON HARBOR     0000   79                 1007.8
$$

LMZ867-665-643>646-020200-
LAKE MICHIGAN

STATION/POSITION TIME  TEMP    WIND        PRES    WAVE
                       AIR SEA DIR/SP/G            HT/PER
                 (UTC) (F)     (DEG/KT/KT) (MB)    (FT/S)
CHAMBERS ISLAND  0000   78     220/  3/  6 1009.1F
S GREEN BAY BUOY 0030   72 71  240/  6/  8 1011.3F
N MID LAKE BUOY  0050   70 69  210/ 17/ 19 1008.5F   2/ 3
NORTHPORT PIER   0000   80     260/  4/  8 1009.1F
ALGOMA LAKESHORE 0012          290/  3/  5   N/A
KEWAUNEE LAKESHO 0100   77     260/  3/  4 1009.7F
SHEBOYGAN LAKESH 0100   80     250/  2/  3 1010.6F
PORT WASHINGTON  0040   84     240/  4/  5 1011.5F
ATWATER BUOY     0100   72 66  170/ 12/ 14 1012.7F
MILWAUKEE LAKESH 0100   71     150/ 11/ 12   N/A
KENOSHA   LAKESH 0100   74     140/  6/  8 1011.2S
$$

TC  - TEMPERATURE IN CELSIUS
VSB - VISIBILITY IN STATUTE MILES
WCI - WIND CHILL INDEX
HX  - HEAT INDEX



USA.gov is the U.S. government's official web portal to all federal, state and local government web resources and services.